When you browse on this site, cookies collect data to enhance your experience and personalize the content and advertising you see.
Visit our Privacy Policy to learn more. By continuing to use the site, you agree to this use of cookies and data.
  • In Belgium
  • List of Countries
  • For 7 days
  • Water Temperature
  • Satellite Maps
  • Weather Map
  • Weather Widgets
  • user-avatar
    Login

    Hourly Weather Zabegalovka

    Today, 22 March, Friday

    Time Temperature Precipitation Wind Pressure Humidity
    00:00 -2°C° 0 mm 2 mps 745 mmHg 94%
    01:00 -2°C° 0 mm 3 mps 745 mmHg 95%
    02:00 -1°C° 0 mm 3 mps 744 mmHg 94%
    03:00 -1°C° 0.6 mm 3 mps 742 mmHg 94%
    04:00 -1°C° 0.6 mm 4 mps 741 mmHg 94%
    05:00 -1°C° 0.6 mm 4 mps 740 mmHg 93%
    06:00 -1°C° 1.1 mm 4 mps 740 mmHg 94%
    07:00 -1°C° 1.1 mm 4 mps 739 mmHg 95%
    08:00 0°C° 0 mm 3 mps 738 mmHg 96%
    09:00 -1°C° 0.4 mm 4 mps 739 mmHg 92%
    10:00 -1°C° 0.4 mm 6 mps 739 mmHg 87%
    11:00 -1°C° 0.4 mm 7 mps 739 mmHg 83%
    12:00 -2°C° 0.1 mm 7 mps 740 mmHg 82%
    13:00 -2°C° 0.1 mm 6 mps 741 mmHg 81%
    14:00 -2°C° 0.1 mm 6 mps 741 mmHg 80%
    15:00 -2°C° 0 mm 6 mps 742 mmHg 80%
    16:00 -2°C° 0 mm 6 mps 742 mmHg 81%
    17:00 -1°C° 0 mm 5 mps 743 mmHg 81%
    18:00 -2°C° 0 mm 5 mps 743 mmHg 83%
    19:00 -2°C° 0 mm 5 mps 744 mmHg 85%
    20:00 -2°C° 0 mm 5 mps 745 mmHg 88%
    21:00 -2°C° 0 mm 5 mps 745 mmHg 88%
    22:00 -1°C° 0 mm 5 mps 746 mmHg 89%
    23:00 -1°C° 0 mm 4 mps 747 mmHg 90%

    Tomorrow, 23 March, Saturday

    Time Temperature Precipitation Wind Pressure Humidity
    00:00 -1°C° 0 mm 4 mps 748 mmHg 91%
    01:00 -1°C° 0 mm 4 mps 749 mmHg 92%
    02:00 0°C° 0 mm 3 mps 750 mmHg 93%
    03:00 0°C° 0 mm 3 mps 751 mmHg 94%
    04:00 -1°C° 0 mm 2 mps 751 mmHg 94%
    05:00 -1°C° 0 mm 2 mps 752 mmHg 95%
    06:00 +1°C° 0 mm 2 mps 752 mmHg 95%
    07:00 +2°C° 0 mm 1 mps 753 mmHg 96%
    08:00 +2°C° 0 mm 1 mps 753 mmHg 97%
    09:00 +2°C° 0 mm 1 mps 753 mmHg 95%
    10:00 +3°C° 0 mm 1 mps 753 mmHg 93%
    11:00 +2°C° 0 mm 0 mps 753 mmHg 92%
    12:00 +4°C° 0 mm 1 mps 753 mmHg 90%
    13:00 +4°C° 0 mm 1 mps 753 mmHg 88%
    14:00 +4°C° 0 mm 1 mps 753 mmHg 86%
    15:00 +3°C° 0 mm 2 mps 752 mmHg 87%
    16:00 +2°C° 0 mm 2 mps 752 mmHg 88%
    17:00 +2°C° 0 mm 2 mps 751 mmHg 90%
    18:00 +1°C° 0 mm 2 mps 751 mmHg 89%
    19:00 0°C° 0 mm 3 mps 750 mmHg 88%
    20:00 0°C° 0 mm 3 mps 750 mmHg 88%
    21:00 -1°C° 0 mm 4 mps 749 mmHg 88%
    22:00 -1°C° 0 mm 4 mps 748 mmHg 87%
    23:00 -1°C° 0 mm 4 mps 747 mmHg 87%

    Day after tomorrow, 24 March, Sunday

    Time Temperature Precipitation Wind Pressure Humidity
    00:00 -1°C° 0.2 mm 4 mps 746 mmHg 88%
    01:00 -1°C° 0.2 mm 4 mps 746 mmHg 88%
    02:00 -1°C° 0.2 mm 4 mps 745 mmHg 88%
    03:00 -1°C° 0.7 mm 4 mps 744 mmHg 89%
    04:00 -1°C° 0.7 mm 4 mps 743 mmHg 91%
    05:00 -1°C° 0.7 mm 4 mps 743 mmHg 92%
    06:00 -1°C° 0 mm 4 mps 742 mmHg 92%
    07:00 -1°C° 0 mm 4 mps 742 mmHg 92%
    08:00 +1°C° 0 mm 3 mps 742 mmHg 93%
    09:00 0°C° 0.2 mm 4 mps 742 mmHg 87%
    10:00 +1°C° 0.2 mm 4 mps 741 mmHg 82%
    11:00 +3°C° 0.2 mm 4 mps 741 mmHg 76%
    12:00 +3°C° 0.2 mm 4 mps 741 mmHg 75%
    13:00 +3°C° 0.2 mm 4 mps 741 mmHg 74%
    14:00 +3°C° 0.2 mm 4 mps 741 mmHg 73%
    15:00 +1°C° 0.1 mm 4 mps 741 mmHg 75%
    16:00 +1°C° 0.1 mm 3 mps 741 mmHg 76%
    17:00 0°C° 0.1 mm 3 mps 741 mmHg 77%
    18:00 0°C° 0 mm 3 mps 741 mmHg 79%
    19:00 -1°C° 0 mm 3 mps 741 mmHg 82%
    20:00 -2°C° 0 mm 3 mps 741 mmHg 84%
    21:00 -2°C° 0 mm 3 mps 741 mmHg 84%
    22:00 -2°C° 0 mm 3 mps 740 mmHg 85%
    23:00 -4°C° 0 mm 3 mps 740 mmHg 86%

    25 March, Monday

    Time Temperature Precipitation Wind Pressure Humidity
    00:00 -4°C° 0 mm 3 mps 740 mmHg 86%
    01:00 -4°C° 0 mm 3 mps 740 mmHg 87%
    02:00 -4°C° 0 mm 3 mps 740 mmHg 87%
    03:00 -2°C° 0 mm 3 mps 739 mmHg 87%
    04:00 -2°C° 0 mm 3 mps 739 mmHg 87%
    05:00 -2°C° 0 mm 3 mps 739 mmHg 87%
    06:00 -1°C° 0.1 mm 3 mps 739 mmHg 86%
    07:00 -1°C° 0.1 mm 3 mps 739 mmHg 85%
    08:00 -2°C° 0.1 mm 4 mps 739 mmHg 85%
    09:00 -1°C° 0 mm 3 mps 739 mmHg 85%
    10:00 0°C° 0 mm 3 mps 739 mmHg 84%
    11:00 0°C° 0 mm 3 mps 739 mmHg 84%
    12:00 +1°C° 0.1 mm 3 mps 739 mmHg 82%
    13:00 +1°C° 0.1 mm 3 mps 739 mmHg 80%
    14:00 +2°C° 0.1 mm 3 mps 739 mmHg 78%
    15:00 +1°C° 0 mm 3 mps 740 mmHg 80%
    16:00 +2°C° 0 mm 2 mps 740 mmHg 83%
    17:00 +1°C° 0 mm 2 mps 740 mmHg 85%
    18:00 +2°C° 0.2 mm 1 mps 740 mmHg 87%
    19:00 +2°C° 0.2 mm 1 mps 741 mmHg 89%
    20:00 +1°C° 0.2 mm 1 mps 741 mmHg 91%
    21:00 +1°C° 0.6 mm 1 mps 741 mmHg 91%
    22:00 +1°C° 0.6 mm 1 mps 741 mmHg 91%
    23:00 0°C° 0.6 mm 1 mps 742 mmHg 91%

    26 March, Tuesday

    Time Temperature Precipitation Wind Pressure Humidity
    00:00 -2°C° 0 mm 2 mps 742 mmHg 91%
    01:00 -3°C° 0 mm 2 mps 742 mmHg 90%
    02:00 -3°C° 0 mm 2 mps 743 mmHg 90%
    03:00 -5°C° 0 mm 3 mps 743 mmHg 90%
    04:00 -5°C° 0 mm 3 mps 743 mmHg 89%
    05:00 -5°C° 0 mm 3 mps 744 mmHg 89%
    06:00 -4°C° 0.1 mm 3 mps 744 mmHg 84%
    07:00 -4°C° 0.1 mm 4 mps 745 mmHg 80%
    08:00 -3°C° 0.1 mm 4 mps 745 mmHg 75%
    09:00 -3°C° 0 mm 4 mps 745 mmHg 72%
    10:00 -2°C° 0 mm 3 mps 746 mmHg 70%
    11:00 -1°C° 0 mm 3 mps 746 mmHg 67%
    12:00 -1°C° 0.3 mm 3 mps 746 mmHg 67%
    13:00 -1°C° 0.3 mm 3 mps 746 mmHg 68%
    14:00 -2°C° 0.3 mm 4 mps 746 mmHg 68%
    15:00 -1°C° 0.1 mm 3 mps 746 mmHg 70%
    16:00 -2°C° 0.1 mm 2 mps 746 mmHg 71%
    17:00 -2°C° 0.1 mm 2 mps 746 mmHg 73%
    18:00 -3°C° 0 mm 2 mps 746 mmHg 77%
    19:00 -3°C° 0 mm 2 mps 746 mmHg 80%
    20:00 -4°C° 0 mm 2 mps 746 mmHg 84%
    21:00 -3°C° 0.3 mm 2 mps 746 mmHg 86%
    22:00 -3°C° 0.3 mm 2 mps 746 mmHg 88%
    23:00 -4°C° 0.3 mm 3 mps 746 mmHg 90%

    27 March, Wednesday

    Time Temperature Precipitation Wind Pressure Humidity
    00:00 -3°C° 0 mm 2 mps 746 mmHg 92%
    01:00 -4°C° 0 mm 2 mps 745 mmHg 93%
    02:00 -4°C° 0 mm 2 mps 745 mmHg 95%
    03:00 -4°C° 0.2 mm 2 mps 745 mmHg 95%
    04:00 -4°C° 0.2 mm 2 mps 745 mmHg 95%
    05:00 -3°C° 0.2 mm 2 mps 745 mmHg 94%
    06:00 -3°C° 0.3 mm 2 mps 745 mmHg 93%
    07:00 -2°C° 0.3 mm 2 mps 745 mmHg 91%
    08:00 -2°C° 0.3 mm 3 mps 745 mmHg 90%
    09:00 -2°C° 0.4 mm 3 mps 745 mmHg 89%
    10:00 -1°C° 0.4 mm 3 mps 745 mmHg 89%
    11:00 -1°C° 0.4 mm 3 mps 745 mmHg 88%
    12:00 -1°C° 0.3 mm 3 mps 745 mmHg 89%
    13:00 0°C° 0.3 mm 3 mps 745 mmHg 89%
    14:00 0°C° 0.3 mm 3 mps 745 mmHg 89%
    15:00 +1°C° 0.2 mm 3 mps 744 mmHg 91%
    16:00 +1°C° 0.2 mm 3 mps 744 mmHg 92%
    17:00 +2°C° 0.2 mm 2 mps 744 mmHg 93%
    18:00 +1°C° 0.3 mm 3 mps 744 mmHg 94%
    19:00 +1°C° 0.3 mm 3 mps 744 mmHg 94%
    20:00 0°C° 0.3 mm 4 mps 744 mmHg 94%
    21:00 0°C° 0.1 mm 4 mps 744 mmHg 94%
    22:00 0°C° 0.1 mm 4 mps 744 mmHg 94%
    23:00 0°C° 0.1 mm 4 mps 744 mmHg 94%
    Show more